Regional Weather Roundup
Issued by NWS

Home | Current Version | Previous Version | Graphics & Text | Print | Product List | Glossary On
Versions: 1 2 3 4 5 6 7 8 9 10 11 12 13 14 15 16 17 18 19 20 21 22 23 24 25 26 27 28 29 30 31 32 33 34 35 36 37 38 39 40 41 42 43 44 45 46 47 48 49 50
000
ASUS43 KIND 300509
RWRIN

WEATHER ROUNDUP FOR INDIANA
NATIONAL WEATHER SERVICE INDIANAPOLIS IN
100 AM EDT SUN APR 30 2017

NOTE: "FAIR" INDICATES FEW OR NO CLOUDS BELOW 12,000 FEET WITH NO
SIGNIFICANT WEATHER AND/OR OBSTRUCTIONS TO VISIBILITY.

* - STATION DOES NOT REPORT WEATHER SUCH AS PRECIPITATION OR FOG.

+ - STATION NOT QUALITY CONTROLLED BY THE NATIONAL WEATHER SERVICE.
    USE DATA WITH CAUTION...ESPECIALLY DEWPOINT AND RELATIVE
    HUMIDITY OBSERVATIONS.

INZ001>003-010>013-019-020-300600-
NORTHWEST INDIANA

CITY           SKY/WX    TMP DP  RH WIND       PRES   REMARKS
GARY /AIRPORT/ DRIZZLE   49  47  95 NE12      29.96F
KNOX *+        CLOUDY    46  32  57 E16G22    29.93F
LA PORTE +     CLOUDY    46  42  86 E16       29.96F
MICHIGAN CITY+ CLOUDY    45  43  93 E9        29.97S
MONTICELLO +   LGT RAIN  51  49  95 E7        29.90F
RENSSELAER +   CLOUDY    50  48  93 E10G16    29.90F
VALPARAISO     CLOUDY    48  45  89 E12       29.95S

$$

LMZ046-743>745-300600-
SOUTHERN LAKE MICHIGAN

STATION/POSITION TIME  TEMP    WIND        PRES    WAVE
                       AIR SEA DIR/SP/G            HT
                 (UTC) (F)     (DEG/KT/KT) (MB)    (FT)
BURNS HARBOR     0440   47      90/ 13/ 20 1014.9F
MICHIGAN CITY    0440   47      60/ 14/ 19   N/A
5NW MICH CITY    0500   47 47                N/A     7

$$

INZ004-005-014>016-021>024-300600-
NORTH CENTRAL INDIANA

CITY           SKY/WX    TMP DP  RH WIND       PRES   REMARKS
GOSHEN         LGT RAIN  43  38  82 E24G33    29.97F
LOGANSPORT +   CLOUDY    48  48 100 E16       29.92F
PERU/GRISSOM   CLOUDY    50  50 100 E15G26    29.91F
ROCHESTER +    CLOUDY    50  48  93 SE15      29.95S
SOUTH BEND     CLOUDY    44  41  89 E20G30    29.97R
WARSAW +       LGT RAIN  43  41  93 E21G28    29.95F

$$

INZ006>009-017-018-025>027-300600-
NORTHEAST INDIANA

CITY           SKY/WX    TMP DP  RH WIND       PRES   REMARKS
ANGOLA *+      MOCLDY    41  30  65 E10       30.11S
AUBURN +       RAIN      41  39  93 E13       30.09F
FORT WAYNE     TSTM      47  42  83 E20       30.05F
HUNTINGTON +   CLOUDY   N/A N/A N/A E13G24    30.01F
KENDALLVILLE + RAIN      40  39  94 E13       30.07F

$$

INZ028-029-035-036-043>045-051>053-300600-
WEST CENTRAL INDIANA

CITY           SKY/WX    TMP DP  RH WIND       PRES   REMARKS
CRAWFORDSVL +  CLOUDY    57  57 100 SE6       29.90F
GREENCASTLE +  CLOUDY    61  61 100 SE3       29.91F
LAFAYETTE      LGT RAIN  53  53 100 E9        29.87F
TERRE HAUTE    CLOUDY    63  61  93 SE6       29.89F

$$

INZ030>032-037>040-046>048-054>057-064-065-300600-
CENTRAL INDIANA

CITY           SKY/WX    TMP DP  RH WIND       PRES   REMARKS
CP ATTERBURY + CLOUDY    61  59  94 E3        29.96S
FRANKFORT +    CLOUDY    58  56  95 SE14      29.93F
GREENWOOD *+   CLOUDY    59  58  97 E3        29.97S
INDIANAPOLIS   TSTM      59  58  96 E12       29.93F FOG
-EAGLE CREEK   RAIN      58  56  93 E9        29.92F FOG
KOKOMO +       CLOUDY    50  48  93 E18       29.94F
MARION +       CLOUDY    48  48 100 E18       29.98F
MT COMFORT *+  CLOUDY    54  52  94 E13       29.96F
SHELBYVILLE    MOCLDY    60  54  80 NE14      29.95F
ZIONSVILLE +   HVY RAIN  54  54  99 SE3       29.95S

$$

INZ033-034-041-042-049-050-058-059-300600-
EAST CENTRAL INDIANA

CITY           SKY/WX    TMP DP  RH WIND       PRES   REMARKS
MUNCIE         LGT RAIN  49  47  93 E17       29.99F
RICHMOND +     CLOUDY    54  54 100 N14G35    30.00R FOG

$$

INZ060-061-067>069-081>083-085>088-300600-
SOUTHWEST INDIANA

CITY           SKY/WX    TMP DP  RH WIND       PRES   REMARKS
EVANSVILLE       N/A    N/A N/A N/A MISG      29.90F
WASHINGTON +   LGT RAIN  64  63  94 CALM      29.91F

$$

INZ062-063-066-070>080-084-089>092-300600-
SOUTH CENTRAL AND SOUTHEAST INDIANA

CITY           SKY/WX    TMP DP  RH WIND       PRES   REMARKS
BEDFORD +      CLOUDY    66  59  77 N3        29.92F
BLOOMINGTON    CLOUDY    64  62  93 E3        29.92F
MADISON *+     MOCLDY    72  64  78 SE6       29.95F
NORTH VERNON + CLOUDY    72  64  78 S5        29.92F
SEYMOUR +      CLOUDY    73  66  78 W16       29.93R

$$




USA.gov is the U.S. government's official web portal to all federal, state and local government web resources and services.